Time,TemperatureF,DewpointF,PressureIn,WindDirection,WindDirectionDegrees,WindSpeedMPH,WindSpeedGustMPH,Humidity,HourlyPrecipIn,Conditions,Clouds,dailyrainin,SoftwareType,DateUTC
2015-08-31 00:03:00,49.0,44.0,29.93,North,-9999,0.0,1.0,82,-99.99,,,-99.99,,2015-08-31 07:03:00,
2015-08-31 00:12:00,48.0,44.0,29.92,North,-9999,0.0,0.0,85,-99.99,,,-99.99,,2015-08-31 07:12:00,
2015-08-31 00:23:00,48.0,44.0,29.92,North,-9999,0.0,0.0,85,-99.99,,,-99.99,,2015-08-31 07:23:00,
2015-08-31 00:33:00,48.0,44.0,29.92,North,-9999,0.0,0.0,85,-99.99,,,-99.99,,2015-08-31 07:33:00,
2015-08-31 00:44:00,48.0,43.0,29.92,North,-9999,0.0,0.0,82,-99.99,,,-99.99,,2015-08-31 07:44:00,
2015-08-31 00:53:00,47.0,43.0,29.93,North,-9999,0.0,0.0,85,-99.99,,,-99.99,,2015-08-31 07:53:00,
2015-08-31 01:03:00,47.0,43.0,29.93,North,-9999,0.0,0.0,85,-99.99,,,-99.99,,2015-08-31 08:03:00,
2015-08-31 01:12:00,47.0,43.0,29.93,North,-9999,0.0,0.0,85,-99.99,,,-99.99,,2015-08-31 08:12:00,
2015-08-31 01:33:00,46.0,43.0,29.93,North,-9999,0.0,0.0,89,-99.99,,,-99.99,,2015-08-31 08:33:00,
2015-08-31 01:43:00,46.0,43.0,29.93,North,-9999,0.0,0.0,89,-99.99,,,-99.99,,2015-08-31 08:43:00,
2015-08-31 01:54:00,46.0,43.0,29.93,North,-9999,0.0,0.0,89,-99.99,,,-99.99,,2015-08-31 08:54:00,
2015-08-31 02:03:00,46.0,43.0,29.93,North,-9999,0.0,0.0,89,-99.99,,,-99.99,,2015-08-31 09:03:00,
2015-08-31 02:12:00,46.0,43.0,29.93,North,-9999,0.0,0.0,89,-99.99,,,-99.99,,2015-08-31 09:12:00,
2015-08-31 02:23:00,46.0,43.0,29.93,North,-9999,0.0,1.0,89,-99.99,,,-99.99,,2015-08-31 09:23:00,
2015-08-31 02:36:00,46.0,43.0,29.93,North,-9999,0.0,-999.0,89,-99.99,,,-99.99,,2015-08-31 09:36:00,
2015-08-31 02:44:00,46.0,43.0,29.93,North,-9999,0.0,1.0,89,-99.99,,,-99.99,,2015-08-31 09:44:00,
2015-08-31 02:53:00,46.0,43.0,29.93,North,-9999,0.0,0.0,89,-99.99,,,-99.99,,2015-08-31 09:53:00,
2015-08-31 03:03:00,46.0,43.0,29.93,North,-9999,0.0,0.0,89,-99.99,,,-99.99,,2015-08-31 10:03:00,
2015-08-31 03:13:00,46.0,43.0,29.92,North,-9999,0.0,0.0,89,-99.99,,,-99.99,,2015-08-31 10:13:00,
2015-08-31 03:33:00,46.0,43.0,29.92,North,-9999,0.0,0.0,89,-99.99,,,-99.99,,2015-08-31 10:33:00,
2015-08-31 03:43:00,45.0,43.0,29.92,SSE,155,1.0,3.0,92,-99.99,,,-99.99,,2015-08-31 10:43:00,
2015-08-31 03:53:00,45.0,43.0,29.92,SSE,155,1.0,3.0,92,-99.99,,,-99.99,,2015-08-31 10:53:00,
2015-08-31 04:03:00,45.0,43.0,29.92,SSE,155,1.0,3.0,92,-99.99,,,-99.99,,2015-08-31 11:03:00,
2015-08-31 04:13:00,46.0,44.0,29.92,South,170,2.0,3.0,92,-99.99,,,-99.99,,2015-08-31 11:13:00,
2015-08-31 04:23:00,47.0,44.0,29.92,SSE,165,2.0,2.0,89,-99.99,,,-99.99,,2015-08-31 11:23:00,
2015-08-31 04:33:00,47.0,44.0,29.92,SSE,165,2.0,2.0,89,-99.99,,,-99.99,,2015-08-31 11:33:00,
2015-08-31 04:43:00,46.0,44.0,29.91,SSE,165,1.0,1.0,92,-99.99,,,-99.99,,2015-08-31 11:43:00,
2015-08-31 04:54:00,46.0,44.0,29.91,SSE,165,1.0,1.0,92,-99.99,,,-99.99,,2015-08-31 11:54:00,
2015-08-31 05:03:00,46.0,43.0,29.91,North,-9999,0.0,0.0,89,-99.99,,,-99.99,,2015-08-31 12:03:00,
2015-08-31 05:13:00,45.0,42.0,29.92,SSE,165,1.0,7.0,89,-99.99,,,-99.99,,2015-08-31 12:13:00,
2015-08-31 05:23:00,45.0,42.0,29.92,SSE,165,1.0,7.0,89,-99.99,,,-99.99,,2015-08-31 12:23:00,
2015-08-31 05:33:00,45.0,42.0,29.92,SSE,165,1.0,7.0,89,-99.99,,,-99.99,,2015-08-31 12:33:00,
2015-08-31 05:43:00,44.0,42.0,29.92,SSE,165,2.0,3.0,92,-99.99,,,-99.99,,2015-08-31 12:43:00,
2015-08-31 05:54:00,44.0,42.0,29.92,SSE,165,2.0,3.0,92,-99.99,,,-99.99,,2015-08-31 12:54:00,
2015-08-31 06:03:00,44.0,42.0,29.92,SSE,165,2.0,3.0,92,-99.99,,,-99.99,,2015-08-31 13:03:00,
2015-08-31 06:13:00,43.0,40.0,29.92,North,-9999,0.0,1.0,89,-99.99,,,-99.99,,2015-08-31 13:13:00,
2015-08-31 06:23:00,42.0,40.0,29.92,North,-9999,0.0,2.0,92,-99.99,,,-99.99,,2015-08-31 13:23:00,
2015-08-31 06:33:00,42.0,40.0,29.92,North,-9999,0.0,2.0,92,-99.99,,,-99.99,,2015-08-31 13:33:00,
2015-08-31 06:43:00,42.0,40.0,29.93,North,-9999,0.0,1.0,92,-99.99,,,-99.99,,2015-08-31 13:43:00,
2015-08-31 06:53:00,42.0,40.0,29.93,North,-9999,0.0,1.0,92,-99.99,,,-99.99,,2015-08-31 13:53:00,
2015-08-31 07:03:00,42.0,40.0,29.93,North,-9999,0.0,0.0,92,-99.99,,,-99.99,,2015-08-31 14:03:00,
2015-08-31 07:12:00,42.0,40.0,29.93,North,-9999,0.0,0.0,92,-99.99,,,-99.99,,2015-08-31 14:12:00,
2015-08-31 07:33:00,41.0,39.0,29.93,North,-9999,0.0,0.0,92,-99.99,,,-99.99,,2015-08-31 14:33:00,
2015-08-31 07:43:00,41.0,39.0,29.94,North,-9999,0.0,0.0,92,-99.99,,,-99.99,,2015-08-31 14:43:00,
2015-08-31 07:53:00,41.0,39.0,29.94,North,-9999,0.0,0.0,92,-99.99,,,-99.99,,2015-08-31 14:53:00,
2015-08-31 08:03:00,41.0,39.0,29.94,North,-9999,0.0,0.0,92,-99.99,,,-99.99,,2015-08-31 15:03:00,
2015-08-31 08:12:00,44.0,43.0,29.95,North,-9999,0.0,0.0,96,-99.99,,,-99.99,,2015-08-31 15:12:00,
2015-08-31 08:23:00,44.0,43.0,29.95,North,-9999,0.0,0.0,96,-99.99,,,-99.99,,2015-08-31 15:23:00,
2015-08-31 08:33:00,44.0,43.0,29.95,North,-9999,0.0,0.0,96,-99.99,,,-99.99,,2015-08-31 15:33:00,
2015-08-31 08:43:00,48.0,46.0,29.94,South,170,1.0,1.0,92,-99.99,,,-99.99,,2015-08-31 15:43:00,
2015-08-31 08:54:00,48.0,46.0,29.94,South,170,1.0,1.0,92,-99.99,,,-99.99,,2015-08-31 15:54:00,
2015-08-31 09:03:00,50.0,46.0,29.94,SSW,205,1.0,1.0,86,-99.99,,,-99.99,,2015-08-31 16:03:00,
2015-08-31 09:12:00,52.0,46.0,29.94,South,180,2.0,7.0,79,-99.99,,,-99.99,,2015-08-31 16:12:00,
2015-08-31 09:35:00,53.0,47.0,29.94,SSW,205,2.0,3.0,79,-99.99,,,-99.99,,2015-08-31 16:35:00,
2015-08-31 09:43:00,54.0,47.0,29.94,South,190,2.0,6.0,77,-99.99,,,-99.99,,2015-08-31 16:43:00,
2015-08-31 09:54:00,54.0,47.0,29.94,South,190,2.0,6.0,77,-99.99,,,-99.99,,2015-08-31 16:54:00,
2015-08-31 10:06:00,55.0,47.0,29.94,South,175,3.0,5.0,74,-99.99,,,-99.99,,2015-08-31 17:06:00,
2015-08-31 10:13:00,55.0,46.0,29.94,South,170,2.0,9.0,71,-99.99,,,-99.99,,2015-08-31 17:13:00,
2015-08-31 10:34:00,56.0,47.0,29.94,SW,225,3.0,3.0,71,-99.99,,,-99.99,,2015-08-31 17:34:00,
2015-08-31 10:44:00,57.0,47.0,29.93,South,190,3.0,3.0,69,-99.99,,,-99.99,,2015-08-31 17:44:00,
2015-08-31 10:54:00,57.0,47.0,29.93,South,190,3.0,3.0,69,-99.99,,,-99.99,,2015-08-31 17:54:00,
2015-08-31 11:03:00,57.0,47.0,29.93,South,190,3.0,3.0,69,-99.99,,,-99.99,,2015-08-31 18:03:00,
2015-08-31 11:13:00,59.0,47.0,29.93,SSE,150,2.0,3.0,64,-99.99,,,-99.99,,2015-08-31 18:13:00,